CAPE
nan nan nan nan nan nan nan nan nan nan nan nan nan nan nan nan nan nan nan nan nan nan nan nan nan nan nan 9 13 13 16 20 27 27 37 41 45 45 51 52 52 58 61 64 64 63 63 60 60 66 71 81 97 97 123 140 140 157 178 178 178 196 209 223 223 212 228 250 269 269 303 309 305 305 301 302 310 310 320 310 310 302 284 281 281 260
nan nan nan nan nan nan nan nan nan nan nan nan nan nan nan nan nan nan nan nan nan nan nan nan nan nan nan 4 20 20 24 29 37 37 45 52 56 56 60 65 65 71 76 72 72 71 70 64 64 69 72 75 88 88 99 118 118 133 148 153 153 163 170 188 188 187 222 226 240 240 275 291 312 312 292 295 284 284 287 291 291 281 286 274 274 259
nan nan nan nan nan nan nan nan nan nan nan nan nan nan nan nan nan nan nan nan nan nan nan nan nan nan nan 3 27 27 28 35 43 43 55 60 66 66 75 81 81 88 94 92 92 88 80 78 78 76 79 82 86 86 91 106 106 118 122 128 128 135 141 153 153 168 189 209 226 226 248 245 261 261 252 255 232 232 228 225 225 232 242 247 247 246
nan nan nan nan nan nan nan nan nan nan nan nan nan nan nan nan nan nan 0 0 0 nan 0 nan nan nan nan 1 19 19 34 40 54 54 62 67 78 78 89 97 97 111 114 119 119 114 102 96 96 93 92 95 100 100 105 106 106 113 114 123 123 122 134 133 133 143 159 180 194 194 206 212 211 211 204 194 194 194 187 206 206 237 247 248 248 232
nan nan nan nan nan nan nan nan nan nan 0 0 nan nan nan 0 1 1 0 1 1 0 1 0 0 0 0 0 12 12 39 53 61 61 69 79 91 91 99 114 114 124 134 142 142 139 121 112 112 106 109 112 124 124 123 131 131 122 129 130 130 135 134 147 147 149 150 167 175 175 188 187 197 197 196 195 191 191 198 227 227 257 269 277 277 274
nan nan nan nan nan nan 0 nan 0 0 0 nan 0 0 0 2 3 3 4 4 4 3 3 1 1 0 nan nan 11 11 45 60 73 73 84 90 102 102 112 128 128 145 155 151 151 151 143 142 142 126 135 130 134 134 147 157 157 148 146 145 145 152 158 162 162 164 166 167 161 161 171 181 201 201 206 217 206 206 214 238 238 289 300 311 311 320
nan 1 2 2 2 2 1 0 4 4 1 1 2 2 1 2 5 5 7 8 8 6 4 2 2 0 0 0 17 17 42 59 72 72 85 97 106 106 121 137 137 154 164 166 166 162 161 158 158 157 149 143 145 145 141 147 147 150 153 162 162 159 166 179 179 171 182 176 173 173 164 176 201 201 210 208 198 198 204 226 226 276 285 312 312 323
9 6 4 4 4 4 3 2 2 2 1 3 3 3 5 6 5 5 6 5 5 5 3 2 2 1 nan nan nan nan 0 4 5 5 18 33 73 73 109 143 143 169 180 183 183 194 198 215 215 211 214 204 186 186 186 170 170 169 166 161 161 155 170 159 159 170 160 162 153 153 136 144 142 142 152 155 156 156 150 156 156 176 200 216 216 238
9 6 3 4 4 3 2 2 1 1 0 1 5 5 6 5 8 8 9 4 4 6 4 4 4 1 0 nan nan nan 10 29 12 12 6 nan nan nan 61 138 138 169 196 191 191 203 217 238 238 237 240 220 209 209 189 183 183 179 164 159 159 153 145 156 156 157 158 157 149 149 141 141 141 141 140 140 139 139 127 122 122 126 146 175 175 189
6 6 4 3 3 4 3 2 0 0 0 2 5 5 9 13 15 15 15 8 8 6 4 6 6 2 0 1 3 3 15 48 112 112 118 73 131 131 117 124 124 119 182 208 208 219 236 251 251 253 238 227 215 215 194 176 176 169 163 155 155 157 149 151 151 152 142 142 133 133 143 133 133 133 132 122 120 120 108 104 104 92 112 114 114 143
5 6 5 6 6 6 5 3 0 0 3 8 15 15 29 26 22 22 16 11 11 6 2 1 1 2 0 1 24 24 41 2 0 0 26 72 122 122 152 157 157 164 195 209 209 209 225 233 233 227 224 214 192 192 179 157 157 149 150 141 141 152 143 154 154 155 144 143 143 143 143 133 133 133 122 121 119 119 99 95 95 82 93 88 88 108
8 6 6 7 7 7 7 7 10 10 25 35 33 33 26 17 10 10 8 5 5 1 nan 2 2 2 0 21 71 71 31 0 nan nan nan 0 33 33 58 56 56 101 143 154 154 173 196 194 194 200 186 156 174 174 161 138 138 156 146 155 155 155 155 145 145 146 145 142 140 140 141 140 140 140 129 117 115 115 103 99 99 85 81 85 85 89
6 6 10 11 11 14 18 32 42 42 40 30 16 16 6 12 16 16 19 17 17 25 11 14 14 19 42 97 74 74 3 nan nan nan nan 0 19 19 19 38 38 51 49 30 30 17 107 164 164 169 172 151 169 169 176 165 165 173 170 167 167 166 154 143 143 132 132 120 125 125 134 133 131 131 121 120 119 119 105 92 92 79 75 69 69 80
7 8 10 12 12 12 11 9 6 6 9 13 22 22 30 35 43 43 53 60 60 78 45 45 45 43 54 39 10 10 nan nan nan nan 3 38 56 56 73 112 112 193 38 3 3 nan 35 55 55 27 136 143 143 143 161 179 179 197 194 190 190 174 158 134 134 123 114 104 120 120 117 114 122 122 121 120 110 110 98 86 86 74 70 65 65 72
7 13 7 7 7 6 5 9 19 19 19 17 24 24 37 46 52 52 50 36 36 31 13 14 14 10 2 0 0 0 nan nan 8 8 36 56 50 50 56 88 88 46 nan 0 0 nan 16 7 7 1 5 62 97 97 143 170 170 228 214 209 209 192 163 136 136 123 113 105 112 112 110 117 114 114 122 111 101 101 89 78 78 68 66 61 61 63
10 15 14 10 10 9 9 12 11 11 5 3 9 9 27 31 18 18 7 5 5 6 8 13 13 7 0 nan nan nan 0 35 81 81 56 27 15 15 nan 0 0 nan nan nan nan nan nan nan nan nan 1 92 206 206 224 220 220 236 232 227 227 209 180 151 151 136 123 104 113 113 121 118 125 125 112 121 108 108 87 77 77 76 67 64 64 72
13 12 10 9 9 14 11 4 0 0 nan 1 13 13 22 11 7 7 5 5 5 6 7 7 7 5 1 nan 15 15 65 69 13 13 10 11 0 0 nan nan nan nan nan nan nan nan nan nan nan nan nan 110 215 215 243 271 271 274 272 254 254 226 202 170 170 147 135 114 113 113 122 128 136 136 133 120 118 118 104 94 94 84 75 71 71 66
16 13 13 15 15 16 17 13 12 12 9 11 10 10 9 7 6 6 6 5 5 3 1 1 1 9 17 62 147 147 123 9 4 4 2 nan nan nan nan nan nan nan nan nan nan nan nan nan nan nan nan 127 187 187 233 268 268 263 268 265 265 246 219 188 188 159 146 116 114 114 133 153 149 149 145 141 127 127 114 102 102 84 76 72 72 68
19 22 22 20 20 25 34 39 27 27 13 8 6 6 5 5 4 4 3 1 1 1 0 9 9 16 29 15 31 31 27 9 15 15 10 0 nan nan nan nan nan nan nan nan nan nan nan nan nan nan 58 129 160 160 190 224 224 248 268 255 255 236 211 195 195 180 161 130 117 117 134 145 151 151 147 143 138 138 124 103 103 86 67 62 62 55
26 30 31 35 35 44 53 52 25 25 7 4 4 4 2 2 2 2 1 3 3 8 20 12 12 2 4 5 7 7 12 19 19 19 4 nan nan nan nan nan nan nan nan nan nan nan nan nan nan nan 41 86 112 112 129 150 150 180 216 242 242 233 205 179 179 176 163 146 131 131 137 145 151 151 148 144 140 140 126 104 104 88 67 56 56 54
29 35 42 46 46 57 48 32 15 15 5 5 3 3 5 3 2 2 5 7 7 0 2 1 1 15 37 29 7 7 4 7 5 5 1 nan nan nan nan nan nan nan nan nan nan nan nan nan nan nan 14 59 84 84 87 89 89 100 155 187 187 213 187 177 177 172 163 146 138 138 133 147 150 150 147 144 131 131 119 98 98 81 69 57 57 47
26 26 23 30 30 40 48 16 12 12 5 7 3 3 5 5 4 4 1 2 2 2 20 46 46 59 59 38 14 14 5 10 13 13 6 3 nan nan nan nan nan nan nan nan nan nan nan nan nan nan 16 55 63 63 65 72 72 86 120 143 143 155 158 162 162 152 164 157 138 138 120 138 148 148 143 131 110 110 99 91 91 73 71 58 58 53
16 23 24 20 20 12 5 nan nan nan 2 5 5 5 6 nan 0 0 1 3 3 19 24 34 34 36 26 16 8 8 6 12 16 16 17 14 3 3 nan nan nan nan nan nan nan nan nan nan nan nan 13 59 61 61 68 80 80 94 88 94 94 101 105 125 125 138 153 155 145 145 127 124 138 138 141 129 118 118 99 91 91 76 64 52 52 45
9 6 0 nan nan nan nan nan nan nan 3 11 21 21 nan 0 2 2 1 16 16 16 23 21 21 16 7 4 5 5 5 9 12 12 14 18 14 14 1 nan nan 0 nan nan nan nan nan nan nan nan 3 45 62 62 73 77 77 81 72 64 64 62 62 69 69 89 125 133 133 133 124 129 142 142 141 136 115 115 97 80 80 75 58 46 46 48
1 nan nan nan nan 3 0 0 6 6 9 3 nan nan 0 1 9 9 14 4 4 3 7 6 6 4 1 7 4 4 3 4 9 9 7 10 9 9 nan nan nan nan nan nan nan nan nan nan nan 0 1 23 58 58 64 69 69 64 62 60 60 66 61 68 68 68 84 118 128 128 129 132 147 147 148 131 106 106 88 69 69 57 51 40 40 35
51 8 0 17 17 77 103 127 144 144 126 26 0 0 nan 13 10 10 0 nan nan nan 2 4 4 2 0 0 2 2 1 3 6 6 2 0 nan nan nan nan nan nan nan nan nan nan nan nan nan 0 0 4 42 42 51 52 52 60 68 78 78 80 88 86 86 83 91 119 133 133 140 144 155 155 164 146 112 112 83 66 66 52 48 41 41 37
115 98 116 136 136 135 148 178 240 240 271 141 21 21 4 7 1 1 nan nan nan nan nan nan nan nan nan 1 2 2 3 5 1 1 0 nan nan nan nan nan nan nan 0 nan nan 0 4 2 2 0 nan nan 1 1 35 48 48 67 81 91 91 100 109 116 116 155 124 123 129 129 131 148 148 148 146 128 103 103 83 59 59 51 46 41 41 31
78 88 105 129 129 140 169 219 197 197 146 117 108 108 38 5 0 0 nan nan nan nan nan nan nan nan 1 3 6 6 3 2 nan nan nan nan nan nan nan nan nan 0 3 3 3 3 12 3 3 nan nan nan nan nan 19 60 60 86 99 81 81 68 63 76 76 95 105 111 99 99 105 120 121 121 124 104 80 80 69 60 60 53 43 20 20 3
58 79 110 140 140 152 152 111 81 81 84 93 98 98 41 2 1 1 nan nan nan 0 1 0 0 3 9 12 11 11 1 nan nan nan nan nan nan nan nan nan nan 1 1 0 0 0 0 nan nan nan nan nan 0 0 24 76 76 91 78 54 54 34 34 34 34 48 67 72 78 78 78 79 82 82 80 69 60 60 61 54 54 53 37 15 15 4
32 80 95 101 101 90 59 27 47 47 63 70 69 69 32 nan 0 0 0 2 2 6 6 13 13 18 16 16 10 10 0 nan nan nan nan nan nan nan nan nan nan nan nan nan nan nan nan nan nan nan 0 13 9 9 6 24 24 20 17 34 34 24 27 26 26 35 41 47 58 58 63 65 59 59 55 53 53 53 51 51 51 40 20 8 8 7
33 37 14 23 23 20 8 4 10 10 34 49 45 45 26 nan nan nan 3 5 5 4 6 8 8 15 16 10 6 6 nan nan nan nan nan nan nan nan nan nan nan nan 0 2 2 3 3 1 1 2 3 0 nan nan nan nan nan nan nan nan nan 2 21 22 22 28 30 39 50 50 56 59 56 56 54 57 56 56 57 56 56 43 16 6 6 5
16 14 10 2 2 0 nan nan nan nan 1 6 5 5 17 12 5 5 1 2 2 4 5 7 7 9 8 8 6 6 2 nan 3 3 5 1 1 1 1 2 2 4 4 6 6 7 2 0 0 nan nan nan nan nan nan 0 0 0 1 2 2 1 22 30 30 26 29 49 51 51 58 59 60 60 70 79 80 80 84 77 77 66 21 0 0 1
19 7 0 0 0 nan nan nan 0 0 4 5 2 2 4 3 10 10 5 3 3 5 6 8 8 6 6 5 5 5 4 1 12 12 20 2 3 3 4 3 3 3 3 3 3 4 3 1 1 0 nan nan nan nan nan 1 1 2 1 2 2 0 8 18 18 15 29 37 41 41 59 65 73 73 80 86 91 91 97 94 94 90 59 2 2 4
8 9 3 0 0 nan nan nan 2 2 7 7 13 13 14 5 6 6 5 4 4 4 5 5 5 5 4 5 4 4 3 1 14 14 18 4 5 5 4 3 3 3 3 3 3 2 1 0 0 0 0 nan nan nan nan nan nan nan nan nan nan nan 0 4 4 9 11 14 8 8 20 29 63 63 66 80 93 93 100 98 98 98 82 28 28 16
7 8 6 2 2 1 1 2 5 5 11 7 1 1 7 5 1 1 1 2 2 2 3 4 4 4 7 5 7 7 3 nan 11 11 27 8 4 4 4 2 2 1 3 3 3 3 1 2 2 7 4 1 0 0 nan nan nan nan nan nan nan nan nan 0 0 4 6 3 4 4 4 2 9 9 30 65 83 83 89 87 87 86 75 67 67 36
8 9 8 5 5 5 7 9 14 14 17 15 5 5 1 nan nan nan nan nan nan 1 5 3 3 4 5 5 6 6 4 0 8 8 22 10 6 6 6 4 4 4 5 5 5 5 4 5 5 13 14 4 1 1 nan nan nan nan nan nan nan nan nan nan nan 0 1 0 1 1 3 7 4 4 13 72 82 82 77 73 73 58 54 49 49 33
5 6 5 8 8 14 18 16 18 18 22 10 1 1 nan nan nan nan nan nan nan nan 2 6 6 3 10 1 0 0 0 1 3 3 13 7 4 4 5 8 8 9 6 7 7 9 9 11 11 10 6 2 nan nan nan nan nan nan nan nan nan nan nan nan nan nan 0 7 20 20 41 44 36 36 27 64 62 62 64 67 67 48 42 34 34 34
6 7 8 8 8 12 19 28 21 21 9 0 nan nan nan nan nan nan nan nan nan nan 0 nan nan nan 6 22 0 0 nan nan 1 1 8 3 2 2 5 7 7 10 9 9 9 12 13 12 12 6 3 1 5 5 3 nan nan nan nan nan nan nan nan nan nan nan 2 16 58 58 84 70 50 50 54 41 27 27 16 10 10 34 38 33 33 37
7 8 8 12 12 22 31 23 15 15 nan nan nan nan nan nan nan nan nan nan nan nan nan nan nan nan nan nan 9 9 13 4 1 1 1 0 2 2 5 3 3 3 4 6 6 10 8 7 7 5 3 2 2 2 1 nan nan nan nan nan nan nan nan nan nan nan 0 0 8 8 31 48 46 46 28 19 38 38 34 8 8 17 5 3 3 15
15 12 15 35 35 35 22 9 nan nan nan nan nan nan nan 0 1 1 1 3 3 1 nan nan nan nan nan 2 6 6 6 0 3 3 nan nan 0 0 1 1 1 3 4 3 3 3 4 5 5 5 8 1 1 1 0 0 0 0 4 nan nan nan nan nan nan nan nan nan nan nan 3 7 6 6 2 1 3 3 15 20 20 15 nan nan nan nan
21 22 25 50 50 42 20 0 nan nan nan nan nan nan 0 4 6 6 5 3 3 2 0 0 0 1 0 nan 1 1 0 nan 3 3 0 4 4 4 6 6 6 8 8 4 4 4 5 4 4 3 1 0 2 2 3 1 1 10 16 2 2 nan 0 1 1 nan nan nan 1 1 12 13 10 10 nan nan nan nan nan nan nan 2 nan nan nan 1
39 28 39 41 41 25 1 nan nan nan nan nan 0 0 5 6 6 6 4 2 2 1 0 1 1 2 nan 2 1 1 1 0 7 7 3 5 6 6 10 16 16 16 16 9 9 9 11 10 10 6 3 1 1 1 0 0 0 5 9 2 2 2 2 0 0 nan nan nan nan nan 14 12 9 9 0 0 nan nan nan nan nan nan 4 4 4 8
35 30 25 15 15 1 nan nan nan nan nan 0 2 2 5 6 4 4 3 4 4 2 2 2 2 2 2 1 nan nan nan nan nan nan nan nan nan nan 1 5 5 5 10 11 11 13 16 19 19 8 4 1 nan nan 0 2 2 1 3 5 5 5 nan nan nan nan nan nan nan nan 3 5 6 6 2 3 2 2 0 nan nan 2 2 0 0 3
32 23 12 2 2 0 nan nan nan nan 0 1 4 4 3 3 5 5 7 4 4 3 1 9 9 5 0 nan nan nan nan nan nan nan nan 1 nan nan nan 1 1 7 13 13 13 13 15 14 14 2 1 0 0 0 0 0 0 nan nan 1 1 1 nan nan nan nan nan nan 3 3 7 2 1 1 nan nan nan nan nan nan nan nan nan nan nan nan
15 10 11 12 12 5 0 nan 0 0 2 2 3 3 3 5 9 9 8 4 4 3 11 10 10 1 nan nan nan nan nan nan nan nan nan 8 21 21 3 10 10 20 17 16 16 18 13 7 7 3 1 0 0 0 nan nan nan nan nan 1 1 nan nan nan nan nan nan nan 5 5 nan nan nan nan nan nan nan nan nan nan nan nan nan nan nan nan
19 17 16 12 12 6 4 3 2 2 2 2 3 3 3 4 7 7 14 7 7 8 15 10 10 nan 0 0 nan nan nan nan nan nan 0 0 0 0 3 6 6 7 6 8 8 6 4 3 3 0 0 0 0 0 nan nan nan nan nan 0 0 nan nan nan nan nan nan 4 nan nan nan nan nan nan nan nan nan nan nan nan nan nan nan nan nan nan
19 12 10 9 9 6 3 3 2 2 2 1 1 1 4 5 7 7 10 12 12 18 22 4 4 0 1 0 nan nan nan 0 0 0 0 1 0 0 nan nan nan 2 3 2 2 1 0 nan nan nan nan nan nan nan nan nan nan nan nan nan nan nan nan nan nan 1 2 nan nan nan nan nan nan nan nan nan nan nan nan nan nan nan nan nan nan nan
26 18 17 14 14 10 5 3 2 2 2 2 3 3 5 4 6 6 7 13 13 26 23 0 0 1 1 0 nan nan 0 1 1 1 1 nan 0 0 0 0 0 1 1 1 1 0 nan nan nan nan nan nan 0 0 nan nan nan 0 nan nan nan nan nan nan nan 1 nan nan nan nan nan nan nan nan nan 0 0 0 nan nan nan nan nan nan nan nan
24 17 21 15 15 8 2 2 2 2 4 4 3 3 4 8 26 26 6 14 14 23 11 1 1 1 1 nan 0 0 1 2 1 1 1 0 nan nan nan 0 0 0 nan nan nan nan nan nan nan nan nan nan nan nan nan 2 2 4 0 nan nan nan nan 2 2 nan nan nan nan nan nan nan 0 0 0 0 3 3 1 2 2 nan nan nan nan nan
19 12 9 10 10 6 2 2 5 5 8 7 4 4 2 1 2 2 2 16 16 22 5 0 0 0 0 0 nan nan 0 1 1 1 1 0 0 0 0 0 0 nan nan nan nan nan nan nan nan nan 9 nan nan nan 4 8 8 5 3 0 0 2 6 2 2 nan nan nan nan nan nan nan nan nan nan 1 2 2 0 0 0 nan nan nan nan nan
15 8 7 7 7 6 4 4 6 6 6 9 9 9 5 1 0 0 2 22 22 16 nan nan nan 0 0 0 0 0 1 0 0 0 1 0 0 0 0 0 0 0 0 nan nan nan nan nan nan nan 14 74 24 24 13 12 12 3 2 3 3 4 nan nan nan nan nan nan nan nan nan nan nan nan 1 4 3 3 nan 0 0 nan nan nan nan nan
CIN
nan nan nan nan nan nan nan nan nan nan nan nan nan nan nan nan nan nan nan nan nan nan nan nan nan nan nan -0 -0 -0 -0 -0 -0 -0 -0 -0 -0 -0 -0 -0 -0 -0 -0 -0 -0 -0 -0 -0 -0 -0 -0 -0 -0 -0 -0 -0 -0 -0 -0 -0 -0 -0 -0 -0 -0 -0 -0 -0 -0 -0 -0 -0 -0 -0 -0 -0 -0 -0 -0 -0 -0 -0 -0 -0 -0 -0
nan nan nan nan nan nan nan nan nan nan nan nan nan nan nan nan nan nan nan nan nan nan nan nan nan nan nan -6 -0 -0 -0 -0 -0 -0 -0 -0 -0 -0 -0 -0 -0 -0 -0 -0 -0 -0 -0 -0 -0 -0 -0 -0 -0 -0 -0 -0 -0 -0 -0 -0 -0 -0 -0 -0 -0 -0 -0 -0 -0 -0 -0 -0 -0 -0 -0 -0 -0 -0 -0 -0 -0 -0 -0 -0 -0 -0
nan nan nan nan nan nan nan nan nan nan nan nan nan nan nan nan nan nan nan nan nan nan nan nan nan nan nan -12 -0 -0 -0 -0 -0 -0 -0 -0 -0 -0 -0 -0 -0 -0 -0 -0 -0 -0 -0 -0 -0 -0 -0 -0 -0 -0 -0 -0 -0 -0 -0 -0 -0 -0 -0 -0 -0 -0 -0 -0 -0 -0 -0 -0 -0 -0 -0 -0 -0 -0 -0 -0 -0 -0 -0 -0 -0 -0
nan nan nan nan nan nan nan nan nan nan nan nan nan nan nan nan nan nan -13 -0 -0 nan -1 nan nan nan nan -20 -0 -0 -0 -0 -0 -0 -0 -0 -0 -0 -0 -0 -0 -0 -0 -0 -0 -0 -0 -0 -0 -0 -0 -0 -0 -0 -0 -0 -0 -0 -0 -0 -0 -0 -0 -0 -0 -0 -0 -0 -0 -0 -0 -0 -0 -0 -0 -0 -0 -0 -0 -0 -0 -0 -0 -0 -0 -0
nan nan nan nan nan nan nan nan nan nan -4 -5 nan nan nan -11 -11 -11 -16 -9 -9 -0 -0 -0 -0 -4 -19 -25 -6 -6 -0 -0 -0 -0 -0 -0 -0 -0 -0 -0 -0 -0 -0 -0 -0 -0 -0 -0 -0 -0 -0 -0 -0 -0 -0 -0 -0 -0 -0 -0 -0 -0 -0 -0 -0 -0 -0 -0 -0 -0 -0 -0 -0 -0 -0 -0 -0 -0 -0 -0 -0 -0 -0 -0 -0 -0
nan nan nan nan nan nan -2 nan -0 -0 -0 nan -6 -6 -11 -16 -14 -14 -14 -12 -12 -12 -11 -6 -6 -5 nan nan -3 -3 -0 -0 -0 -0 -0 -0 -0 -0 -0 -0 -0 -0 -0 -0 -0 -0 -0 -0 -0 -0 -0 -0 -0 -0 -0 -0 -0 -0 -0 -0 -0 -0 -0 -0 -0 -0 -0 -0 -0 -0 -0 -0 -0 -0 -0 -0 -0 -0 -0 -0 -0 -0 -0 -0 -0 -0
nan -0 -0 -0 -0 -0 -1 -3 -0 -0 -3 -6 -13 -13 -24 -22 -19 -19 -9 -8 -8 -8 -11 -14 -14 -12 -1 -0 -0 -0 -0 -0 -0 -0 -0 -0 -0 -0 -0 -0 -0 -0 -0 -0 -0 -0 -0 -0 -0 -0 -0 -0 -0 -0 -0 -0 -0 -0 -0 -0 -0 -0 -0 -0 -0 -0 -0 -0 -0 -0 -0 -0 -0 -0 -0 -0 -0 -0 -0 -0 -0 -0 -0 -0 -0 -0
-3 -1 -0 -0 -0 -2 -0 -0 -5 -5 -7 -3 -3 -3 -2 -2 -10 -10 -18 -24 -24 -23 -18 -15 -15 -18 nan nan nan nan -2 -2 -2 -2 -0 -0 -0 -0 -0 -0 -0 -0 -0 -0 -0 -0 -0 -0 -0 -0 -0 -0 -0 -0 -0 -0 -0 -0 -0 -0 -0 -0 -0 -0 -0 -0 -0 -0 -0 -0 -0 -0 -0 -0 -0 -0 -0 -0 -0 -0 -0 -0 -0 -0 -0 -0
-2 -0 -0 -0 -0 -0 -0 -0 -13 -13 -20 -7 -3 -3 -0 -0 -0 -0 -4 -14 -14 -23 -18 -10 -10 -12 -16 nan nan nan -0 -0 -3 -3 -1 nan nan nan -5 -0 -0 -0 -0 -0 -0 -0 -0 -0 -0 -0 -0 -0 -0 -0 -0 -0 -0 -0 -0 -0 -0 -0 -0 -0 -0 -0 -0 -0 -0 -0 -0 -0 -0 -0 -0 -0 -0 -0 -0 -0 -0 -0 -0 -0 -0 -0
-8 -0 -0 -0 -0 -3 -0 -0 -5 -5 -23 -9 -6 -6 -3 -1 -1 -1 -2 -7 -7 -21 -22 -17 -17 -13 -18 -17 -5 -5 -0 -0 -0 -0 -0 -4 -0 -0 -6 -4 -4 -4 -0 -0 -0 -0 -0 -0 -0 -0 -0 -0 -0 -0 -0 -0 -0 -0 -0 -0 -0 -0 -0 -0 -0 -0 -0 -0 -0 -0 -0 -0 -0 -0 -0 -0 -0 -0 -0 -0 -0 -0 -0 -0 -0 -0
-8 -3 -6 -6 -6 -3 -4 -5 -11 -11 -22 -12 -11 -11 -7 -4 -5 -5 -6 -9 -9 -14 -16 -22 -22 -17 -13 -5 -0 -0 -0 -11 -25 -25 -18 -13 -3 -3 -3 -6 -6 -1 -0 -0 -0 -0 -0 -0 -0 -0 -0 -0 -0 -0 -0 -0 -0 -0 -0 -0 -0 -0 -0 -0 -0 -0 -0 -0 -0 -0 -0 -0 -0 -0 -0 -0 -0 -0 -0 -0 -0 -0 -0 -0 -0 -0
-5 -5 -6 -7 -7 -8 -7 -10 -17 -17 -13 -6 -3 -3 -6 -8 -15 -15 -11 -5 -5 -2 nan -10 -10 -16 -10 -0 -0 -0 -0 -28 nan nan nan -54 -31 -31 -16 -13 -13 -3 -0 -0 -0 -0 -0 -0 -0 -0 -0 -0 -0 -0 -0 -1 -1 -1 -1 -0 -0 -0 -0 -0 -0 -0 -0 -0 -0 -0 -0 -0 -0 -0 -0 -0 -0 -0 -0 -0 -0 -0 -0 -0 -0 -0
-8 -8 -6 -9 -9 -8 -9 -5 -4 -4 -6 -6 -7 -7 -10 -8 -10 -10 -2 -3 -3 -3 -2 -2 -2 -7 -10 -8 -4 -4 -14 nan nan nan nan -30 -22 -22 -14 -6 -6 -3 -0 -3 -3 -5 -3 -0 -0 -0 -0 -0 -0 -0 -0 -0 -0 -0 -1 -0 -0 -0 -0 -0 -0 -0 -0 -0 -0 -0 -0 -0 -0 -0 -0 -0 -0 -0 -0 -0 -0 -0 -0 -0 -0 -0
-7 -10 -9 -8 -8 -10 -10 -8 -6 -6 -4 -6 -6 -6 -7 -9 -8 -8 -3 -2 -2 -3 -6 -4 -4 -5 -8 -7 -10 -10 nan nan nan nan -18 -8 -7 -7 -6 -6 -6 -2 -0 -1 -1 nan -12 -15 -15 -27 -5 -2 -3 -3 -1 -0 -0 -0 -0 -0 -0 -0 -0 -0 -0 -0 -0 -0 -0 -0 -0 -0 -0 -0 -0 -0 -0 -0 -0 -0 -0 -0 -0 -0 -0 -0
-8 -6 -7 -6 -6 -7 -5 -5 -4 -4 -4 -8 -13 -13 -11 -8 -6 -6 -3 -4 -4 -7 -10 -7 -7 -7 -7 -12 -23 -23 nan nan -11 -11 -7 -3 -3 -3 -10 -8 -8 -9 nan -7 -7 nan -23 -31 -31 -44 -35 -22 -19 -19 -5 -1 -1 -0 -0 -0 -0 -0 -0 -0 -0 -0 -0 -0 -0 -0 -0 -0 -0 -0 -0 -0 -0 -0 -0 -0 -0 -0 -0 -0 -0 -0
-8 -4 -3 -5 -5 -5 -7 -6 -6 -6 -8 -19 -21 -21 -11 -7 -11 -11 -12 -11 -11 -11 -10 -5 -5 -4 -5 nan nan nan -24 -3 -0 -0 -0 -2 -17 -17 nan -48 -48 nan nan nan nan nan nan nan nan nan -42 -21 -9 -9 -2 -0 -0 -0 -0 -0 -0 -0 -0 -0 -0 -0 -0 -0 -0 -0 -0 -0 -0 -0 -0 -0 -0 -0 -0 -0 -0 -0 -0 -0 -0 -0
-7 -5 -6 -5 -5 -5 -10 -11 -16 -16 nan -21 -11 -11 -7 -11 -12 -12 -10 -9 -9 -10 -9 -7 -7 -6 -3 nan -23 -23 -7 -0 -0 -0 -0 -0 -48 -48 nan nan nan nan nan nan nan nan nan nan nan nan nan -15 -8 -8 -5 -3 -3 -1 -0 -0 -0 -0 -0 -0 -0 -0 -0 -0 -0 -0 -0 -0 -0 -0 -0 -0 -0 -0 -0 -0 -0 -0 -0 -0 -0 -0
-6 -7 -6 -5 -5 -7 -11 -13 -9 -9 -12 -13 -11 -11 -13 -18 -16 -16 -10 -10 -10 -11 -13 -14 -14 -7 -4 -6 -3 -3 -0 -0 -0 -0 -0 nan nan nan nan nan nan nan nan nan nan nan nan nan nan nan nan -1 -4 -4 -4 -2 -2 -2 -1 -0 -0 -0 -1 -0 -0 -0 -0 -0 -0 -0 -0 -0 -0 -0 -0 -0 -0 -0 -0 -0 -0 -0 -0 -0 -0 -0
-3 -5 -4 -5 -5 -7 -9 -6 -5 -5 -9 -14 -16 -16 -13 -13 -14 -14 -13 -12 -12 -11 -11 -5 -5 -3 -1 -0 -0 -0 -0 -0 -3 -3 -7 -13 nan nan nan nan nan nan nan nan nan nan nan nan nan nan -4 -0 -0 -0 -4 -4 -4 -4 -2 -2 -2 -2 -2 -0 -0 -0 -0 -0 -0 -0 -0 -0 -0 -0 -0 -0 -0 -0 -0 -0 -0 -0 -0 -0 -0 -0
-2 -3 -3 -3 -3 -3 -2 -4 -5 -5 -12 -17 -17 -17 -13 -10 -10 -10 -12 -12 -12 -8 -2 -0 -0 -0 -0 -1 -9 -9 -21 -19 -13 -13 -15 nan nan nan nan nan nan nan nan nan nan nan nan nan nan nan -6 -0 -0 -0 -0 -0 -0 -3 -3 -3 -3 -2 -2 -1 -1 -0 -0 -0 -0 -0 -0 -0 -0 -0 -0 -0 -0 -0 -0 -0 -0 -0 -0 -0 -0 -0
-2 -2 -4 -4 -4 -2 -3 -5 -8 -8 -13 -19 -15 -15 -8 -8 -8 -8 -8 -5 -5 -2 -0 -0 -0 -0 -2 -5 -18 -18 -26 -24 -19 -19 -18 nan nan nan nan nan nan nan nan nan nan nan nan nan nan nan -21 -0 -0 -0 -0 -0 -0 -0 -0 -3 -3 -2 -1 -0 -0 -0 -0 -0 -0 -0 -0 -0 -0 -0 -0 -0 -0 -0 -0 -0 -0 -0 -0 -0 -0 -0
-4 -2 -5 -5 -5 -4 -2 -13 -13 -13 -13 -19 -12 -12 -7 -7 -4 -4 -0 -0 -0 -0 -1 -1 -1 -2 -3 -2 -6 -6 -24 -21 -16 -16 -16 -14 nan nan nan nan nan nan nan nan nan nan nan nan nan nan -17 -0 -0 -0 -0 -0 -0 -0 -0 -0 -0 -0 -0 -0 -0 -0 -0 -0 -0 -0 -0 -0 -0 -0 -0 -0 -0 -0 -0 -0 -0 -0 -0 -0 -0 -0
-3 -1 -3 -5 -5 -9 -11 nan nan nan -16 -15 -9 -9 -8 nan -0 -0 -0 -0 -0 -2 -4 -4 -4 -4 -2 -4 -14 -14 -22 -25 -20 -20 -16 -9 -17 -17 nan nan nan nan nan nan nan nan nan nan nan nan -13 -0 -0 -0 -0 -0 -0 -0 -0 -0 -0 -0 -0 -0 -0 -0 -0 -0 -0 -0 -0 -0 -0 -0 -0 -0 -0 -0 -0 -0 -0 -0 -0 -0 -0 -0
-1 -2 -8 nan nan nan nan nan nan nan -20 -13 -7 -7 nan -0 -0 -0 -0 -4 -4 -6 -5 -6 -6 -7 -12 -15 -18 -18 -23 -27 -30 -30 -23 -12 -8 -8 -20 nan nan -8 nan nan nan nan nan nan nan nan -25 -0 -0 -0 -0 -0 -0 -0 -0 -0 -0 -0 -0 -0 -0 -0 -0 -0 -0 -0 -0 -0 -0 -0 -0 -0 -0 -0 -0 -0 -0 -0 -0 -0 -0 -0
-2 nan nan nan nan -38 -34 -30 -21 -21 -17 -10 nan nan -0 -0 -3 -3 -16 -20 -20 -17 -12 -15 -15 -15 -20 -6 -22 -22 -29 -36 -37 -37 -27 -17 -8 -8 nan nan nan nan nan nan nan nan nan nan nan -25 -32 -4 -0 -0 -0 -0 -0 -0 -0 -0 -0 -0 -0 -0 -0 -0 -0 -0 -0 -0 -0 -0 -0 -0 -0 -0 -0 -0 -0 -0 -0 -0 -0 -0 -0 -0
-1 -6 -22 -23 -23 -9 -0 -0 -0 -0 -1 -1 -0 -0 nan -11 -20 -20 -27 nan nan nan -16 -13 -13 -13 -19 -19 -17 -17 -26 -40 -38 -38 -33 -29 nan nan nan nan nan nan nan nan nan nan nan nan nan -23 -33 -19 -0 -0 -0 -0 -0 -0 -0 -0 -0 -0 -0 -0 -0 -0 -0 -0 -0 -0 -0 -0 -0 -0 -0 -0 -0 -0 -0 -0 -0 -0 -0 -0 -0 -0
-0 -0 -0 -0 -0 -0 -0 -0 -0 -0 -0 -0 -0 -0 -10 -24 -18 -18 nan nan nan nan nan nan nan nan nan -17 -14 -14 -17 -21 -36 -36 -40 nan nan nan nan nan nan nan -10 nan nan -17 -6 -6 -6 -14 nan nan -6 -6 -0 -0 -0 -0 -0 -0 -0 -0 -0 -0 -0 -0 -0 -0 -0 -0 -0 -0 -0 -0 -0 -0 -0 -0 -0 -0 -0 -0 -0 -0 -0 -0
-0 -0 -0 -0 -0 -0 -0 -0 -0 -0 -0 -0 -0 -0 -0 -13 -8 -8 nan nan nan nan nan nan nan nan -13 -11 -8 -8 -18 -17 nan nan nan nan nan nan nan nan nan -12 -10 -13 -13 -11 -0 -0 -0 nan nan nan nan nan -0 -0 -0 -0 -0 -0 -0 -0 -0 -0 -0 -0 -0 -0 -0 -0 -0 -0 -0 -0 -0 -0 -0 -0 -0 -0 -0 -0 -0 -7 -7 -29
-0 -0 -0 -0 -0 -0 -0 -0 -0 -0 -0 -0 -0 -0 -0 -13 -5 -5 nan nan nan -9 -7 -7 -7 -6 -6 -3 -3 -3 -14 nan nan nan nan nan nan nan nan nan nan -20 -14 -12 -12 -15 -9 nan nan nan nan nan -20 -20 -6 -0 -0 -0 -0 -0 -0 -0 -0 -0 -0 -0 -0 -0 -0 -0 -0 -0 -0 -0 -0 -0 -0 -0 -0 -0 -0 -0 -1 -13 -13 -22
-6 -0 -0 -0 -0 -0 -0 -0 -0 -0 -0 -0 -0 -0 -0 nan -10 -10 -10 -10 -10 -1 -2 -1 -1 -2 -4 -3 -4 -4 -10 nan nan nan nan nan nan nan nan nan nan nan nan nan nan nan nan nan nan nan -16 -0 -6 -6 -25 -16 -16 -18 -6 -0 -0 -0 -0 -0 -0 -0 -0 -0 -0 -0 -0 -0 -0 -0 -0 -0 -0 -0 -0 -0 -0 -6 -17 -24 -24 -21
-6 -2 -2 -1 -1 -3 -7 -15 -6 -6 -0 -0 -0 -0 -2 nan nan nan -10 -4 -4 -4 -2 -1 -1 -2 -2 -2 -2 -2 nan nan nan nan nan nan nan nan nan nan nan nan -12 -7 -7 -5 -6 -13 -13 -12 -7 -3 nan nan nan nan nan nan nan nan nan -7 -0 -0 -0 -0 -0 -0 -0 -0 -0 -0 -0 -0 -0 -0 -0 -0 -0 -0 -0 -3 -21 -26 -26 -27
-2 -6 -8 -16 -16 -29 nan nan nan nan -35 -27 -28 -28 -9 -10 -8 -8 -11 -9 -9 -4 -2 -1 -1 -2 -2 -2 -2 -2 -5 nan -4 -4 -6 -6 -7 -7 -11 -7 -7 -6 -7 -9 -9 -4 -3 -4 -4 nan nan nan nan nan nan -10 -10 -20 -22 -22 -22 -37 -0 -0 -0 -0 -0 -0 -0 -0 -0 -0 -0 -0 -0 -0 -0 -0 -0 -0 -0 -0 -22 -38 -38 -34
-7 -12 -23 -28 -28 nan nan nan -49 -49 -36 -29 -33 -33 -23 -20 -5 -5 -10 -12 -12 -9 -5 -3 -3 -3 -3 -4 -5 -5 -6 -9 -0 -0 -0 -6 -4 -4 -6 -6 -6 -6 -7 -7 -7 -7 -5 -3 -3 -6 nan nan nan nan nan -9 -9 -9 -17 -12 -12 -30 -20 -10 -10 -15 -3 -0 -7 -7 -0 -0 -0 -0 -0 -0 -0 -0 -0 -0 -0 -0 -7 -44 -44 -31
-22 -28 -32 -35 -35 nan nan nan -51 -51 -39 -31 -20 -20 -17 -21 -14 -14 -11 -15 -15 -17 -13 -5 -5 -2 -2 -2 -3 -3 -5 -8 -0 -0 -0 -5 -2 -2 -4 -5 -5 -5 -5 -4 -4 -5 -5 -6 -6 -5 -9 nan nan nan nan nan nan nan nan nan nan nan -30 -19 -19 -14 -24 -26 -42 -42 -23 -19 -0 -0 -0 -0 -0 -0 -0 -0 -0 -0 -0 -18 -18 -20
-21 -21 -25 -31 -31 -34 -36 -43 -40 -40 -29 -29 -31 -31 -19 -18 -24 -24 -26 -21 -21 -21 -16 -9 -9 -6 -2 -1 -1 -1 -3 nan -0 -0 -0 -3 -3 -3 -3 -4 -4 -5 -3 -3 -3 -4 -5 -3 -3 -0 -3 -10 -17 -17 nan nan nan nan nan nan nan nan nan -31 -31 -16 -19 -31 -31 -31 -38 -44 -33 -33 -15 -1 -0 -0 -0 -0 -0 -0 -0 -0 -0 -2
-16 -15 -18 -22 -22 -20 -24 -23 -22 -22 -17 -13 -17 -17 -19 nan nan nan nan nan nan -18 -11 -14 -14 -11 -6 -2 -0 -0 -2 -7 -0 -0 -0 -3 -2 -2 -1 -3 -3 -3 -2 -2 -2 -2 -3 -2 -2 -0 -0 -3 -10 -10 nan nan nan nan nan nan nan nan nan nan nan -28 -24 -18 -15 -15 -16 -12 -14 -14 -18 -0 -0 -0 -0 -0 -0 -0 -0 -0 -0 -0
-16 -15 -15 -14 -14 -11 -14 -19 -14 -14 -7 -7 -15 -15 nan nan nan nan nan nan nan nan -13 -6 -6 -8 -4 -8 -7 -7 -5 -5 -7 -7 -3 -5 -2 -2 -1 -1 -1 -1 -2 -2 -2 -1 -2 -1 -1 -0 -1 -4 nan nan nan nan nan nan nan nan nan nan nan nan nan nan -20 -5 -7 -7 -3 -0 -0 -0 -0 -0 -0 -0 -0 -0 -0 -0 -0 -0 -0 -0
-12 -8 -10 -14 -14 -15 -13 -7 -5 -5 -7 -15 nan nan nan nan nan nan nan nan nan nan -15 nan nan nan -4 -1 -14 -14 nan nan -10 -10 -6 -9 -4 -4 -1 -1 -1 -1 -2 -2 -2 -1 -1 -1 -1 -1 -2 -6 -1 -1 -5 nan nan nan nan nan nan nan nan nan nan nan -16 -15 -9 -9 -4 -2 -1 -1 -0 -0 -5 -5 -12 -23 -23 -4 -0 -0 -0 -0
-10 -10 -10 -10 -10 -9 -4 -2 -1 -1 nan nan nan nan nan nan nan nan nan nan nan nan nan nan nan nan nan nan -3 -3 -3 -9 -12 -12 -14 -16 -9 -9 -1 -1 -1 -2 -3 -4 -4 -2 -1 -1 -1 -1 -2 -4 -6 -6 -10 nan nan nan nan nan nan nan nan nan nan nan -24 -30 -17 -17 -15 -11 -4 -4 -4 -8 -5 -5 -3 -11 -11 -10 -32 -43 -43 -11
-3 -5 -5 -1 -1 -4 -1 -3 nan nan nan nan nan nan nan -12 -18 -18 -22 -13 -13 -12 nan nan nan nan nan -6 -5 -5 -7 -18 -13 -13 nan nan -19 -19 -6 -6 -6 -6 -5 -5 -5 -3 -2 -2 -2 -2 -0 -3 -4 -4 -8 -11 -11 -10 -3 nan nan nan nan nan nan nan nan nan nan nan -19 -16 -10 -10 -20 -34 -27 -27 -7 -4 -4 -7 nan nan nan nan
-1 -0 -3 -2 -2 -1 -0 -16 nan nan nan nan nan nan -10 -7 -5 -5 -6 -11 -11 -12 -13 -13 -13 -11 -11 nan -15 -15 -21 nan -22 -22 -38 -27 -21 -21 -6 -3 -3 -2 -2 -7 -7 -4 -3 -3 -3 -2 -3 -5 -3 -3 -4 -6 -6 -0 -0 -3 -3 nan -15 -14 -14 nan nan nan -12 -12 -5 -5 -4 -4 nan nan nan nan nan nan nan -12 nan nan nan -22
-0 -1 -2 -4 -4 -1 -13 nan nan nan nan nan -10 -10 -6 -5 -4 -4 -5 -7 -7 -8 -9 -7 -7 -5 nan -8 -20 -20 -35 -44 -34 -34 -42 -39 -30 -30 -16 -7 -7 -4 -3 -3 -3 -3 -3 -2 -2 -2 -4 -4 -3 -3 -6 -7 -7 -3 -1 -4 -4 -6 -8 -12 -12 nan nan nan nan nan -1 -2 -2 -2 -5 -8 nan nan nan nan nan nan -8 -13 -13 -13
-1 -2 -5 -9 -9 -11 nan nan nan nan nan -10 -7 -7 -7 -7 -7 -7 -5 -4 -4 -3 -3 -3 -3 -4 -3 -9 nan nan nan nan nan nan nan nan nan nan -30 -17 -17 -14 -7 -2 -2 -1 -2 -1 -1 -3 -4 -4 nan nan -3 -4 -4 -6 -5 -3 -3 -2 nan nan nan nan nan nan nan nan -5 -1 -1 -1 -2 -2 -3 -3 -8 nan nan -0 -0 -6 -6 -10
-1 -2 -6 -10 -10 -31 nan nan nan nan -9 -7 -6 -6 -9 -12 -7 -7 -4 -3 -3 -2 -3 -3 -3 -6 -5 nan nan nan nan nan nan nan nan -38 nan nan nan -26 -26 -15 -8 -2 -2 -2 -2 -1 -1 -4 -6 -5 -2 -2 -3 -4 -4 nan nan -6 -6 -4 nan nan nan nan nan nan -8 -8 -1 -1 -2 -2 nan nan nan nan nan nan nan nan nan nan nan nan
-7 -7 -7 -4 -4 -3 -5 nan -7 -7 -7 -5 -7 -7 -10 -11 -4 -4 -3 -3 -3 -2 -2 -2 -2 -5 nan nan nan nan nan nan nan nan nan -21 -3 -3 -40 -25 -25 -14 -11 -7 -7 -3 -2 -2 -2 -2 -5 -5 -2 -2 nan nan nan nan nan -5 -5 nan nan nan nan nan nan nan -3 -3 nan nan nan nan nan nan nan nan nan nan nan nan nan nan nan nan
-7 -6 -7 -6 -6 -4 -2 -3 -6 -6 -6 -6 -7 -7 -10 -14 -8 -8 -2 -3 -3 -2 -2 -3 -3 nan -4 -3 nan nan nan nan nan nan -23 -32 -43 -43 -35 -29 -29 -26 -22 -14 -14 -10 -7 -3 -3 -4 -4 -3 -4 -4 nan nan nan nan nan -4 -4 nan nan nan nan nan nan -3 nan nan nan nan nan nan nan nan nan nan nan nan nan nan nan nan nan nan
-8 -10 -10 -8 -8 -5 -4 -3 -5 -5 -6 -7 -9 -9 -10 -12 -8 -8 -5 -4 -4 -3 -1 -6 -6 -5 -5 -7 nan nan nan -8 -8 -8 -14 -17 -27 -27 nan nan nan -25 -12 -13 -13 -15 -17 nan nan nan nan nan nan nan nan nan nan nan nan nan nan nan nan nan nan -5 -1 nan nan nan nan nan nan nan nan nan nan nan nan nan nan nan nan nan nan nan
-6 -7 -6 -5 -5 -3 -2 -4 -7 -7 -7 -7 -9 -9 -8 -10 -7 -7 -6 -5 -5 -2 -1 -7 -7 -7 -6 -8 nan nan -10 -8 -6 -6 -4 nan -18 -18 -19 -19 -19 -17 -10 -11 -11 -16 nan nan nan nan nan nan -1 -1 nan nan nan -6 nan nan nan nan nan nan nan -0 nan nan nan nan nan nan nan nan nan -2 -3 -3 nan nan nan nan nan nan nan nan
-10 -8 -4 -4 -4 -3 -4 -9 -8 -8 -6 -7 -8 -8 -9 -3 -0 -0 -3 -4 -4 -2 -2 -6 -6 -5 -4 nan -7 -7 -0 -2 -4 -4 -4 -8 nan nan nan -18 -18 -10 nan nan nan nan nan nan nan nan nan nan nan nan nan -4 -4 -4 -5 nan nan nan nan -1 -1 nan nan nan nan nan nan nan -0 -0 -1 -1 -3 -3 -4 -3 -3 nan nan nan nan nan
-13 -11 -8 -4 -4 -3 -6 -7 -5 -5 -3 -4 -6 -6 -9 -11 -8 -8 -5 -2 -2 -1 -4 -6 -6 -4 -3 -7 nan nan -6 -8 -7 -7 -5 -6 -7 -7 -11 -14 -14 nan nan nan nan nan nan nan nan nan -24 nan nan nan -3 -2 -2 -3 -3 -3 -3 -3 -1 -2 -2 nan nan nan nan nan nan nan nan nan nan -2 -7 -7 -12 -11 -11 nan nan nan nan nan
-13 -13 -9 -5 -5 -4 -6 -6 -5 -5 -4 -3 -3 -3 -5 -11 -14 -14 -8 -2 -2 -1 nan nan nan -4 -3 -4 -6 -6 -4 -10 -9 -9 -6 -7 -9 -9 -14 -9 -9 -5 -5 nan nan nan nan nan nan nan -9 -0 -1 -1 -1 -1 -1 -2 -3 -3 -3 -3 nan nan nan nan nan nan nan nan nan nan nan nan -9 -5 -8 -8 nan -13 -13 nan nan nan nan nan
Wind_Speed
6 6 7 9 9 9 8 10 11 10 9 9 9 9 9 10 10 11 13 13 13 12 12 11 11 12 13 16 18 19 20 21 21 22 22 22 22 22 22 22 22 22 21 21 21 21 21 21 21 21 21 21 21 21 21 21 21 21 21 20 20 20 20 20 20 20 20 19 19 19 19 19 19 19 19 19 19 19 19 19 19 19 19 18 18 17
6 6 7 9 10 10 8 10 10 10 10 10 10 10 10 11 10 10 10 12 12 12 11 11 11 12 13 14 16 19 20 21 21 21 22 22 22 22 22 22 22 22 22 22 22 21 21 21 21 21 20 20 20 20 20 20 20 20 20 20 20 20 20 20 20 20 20 20 20 20 20 20 20 20 20 20 19 19 19 19 19 19 19 18 18 18
7 7 6 7 8 9 8 9 10 10 11 11 11 11 12 13 11 10 9 10 10 11 11 11 11 12 13 13 15 18 19 20 21 21 22 22 22 22 23 23 23 23 23 22 22 21 21 21 20 20 20 20 20 20 20 20 20 20 20 20 20 20 20 20 20 20 20 21 21 21 21 21 21 21 20 20 20 20 20 20 19 19 19 19 19 18
7 7 7 7 7 8 8 9 9 10 10 11 12 13 14 12 10 9 9 9 10 10 10 11 11 11 11 11 13 16 19 20 21 22 22 22 23 23 23 23 23 23 22 22 21 21 20 20 20 20 19 19 19 19 19 19 19 20 20 20 20 20 20 20 20 20 20 20 20 21 21 21 21 21 20 21 20 20 20 20 20 20 19 19 19 19
7 7 7 7 7 7 8 9 9 10 10 10 11 11 12 10 9 8 9 9 10 10 10 10 11 11 10 10 12 15 19 21 22 22 23 23 23 23 23 23 22 22 22 21 20 20 19 19 19 19 19 19 19 19 19 19 19 19 19 19 19 19 19 19 19 19 20 19 19 19 19 19 19 19 19 19 19 19 19 19 19 19 19 19 19 19
7 7 7 7 7 7 7 8 8 9 9 9 9 9 9 8 8 8 8 8 9 9 9 9 9 10 11 11 13 16 19 21 22 22 22 22 22 22 22 22 21 21 20 20 19 19 18 18 18 18 18 18 18 18 18 18 18 18 18 18 18 18 18 18 18 18 18 18 18 18 18 18 18 18 18 18 18 18 18 18 18 18 18 18 18 18
7 7 7 7 7 6 7 7 8 8 8 8 8 8 8 8 8 8 8 8 8 8 8 9 9 10 11 12 14 16 17 18 19 20 20 20 20 20 20 21 20 20 20 19 19 18 18 18 18 19 19 18 18 18 18 18 18 18 18 18 18 18 17 17 17 17 17 17 17 17 17 17 17 16 16 17 17 17 17 17 17 17 17 17 17 17
8 8 7 7 7 7 6 7 7 7 8 8 8 8 8 8 7 8 9 9 8 8 8 8 8 9 9 11 12 13 13 14 14 15 16 16 17 18 19 19 20 20 19 19 19 18 18 18 19 19 19 18 18 18 18 18 18 18 18 18 17 17 17 17 17 17 17 16 16 16 16 16 16 16 16 16 16 16 16 16 16 16 16 17 17 17
9 9 8 8 8 8 7 7 7 7 8 8 8 9 9 9 8 8 8 8 8 7 7 8 8 8 9 9 10 11 11 12 11 11 12 12 13 14 16 17 18 19 19 19 18 18 18 18 18 18 18 18 18 18 18 18 18 18 17 17 17 17 17 17 17 17 17 17 16 16 16 16 16 16 16 16 16 16 16 16 16 16 16 17 17 17
9 9 9 8 7 7 7 7 7 7 8 8 9 9 9 9 9 9 9 8 7 6 6 7 8 8 8 9 9 10 11 12 13 14 14 14 15 16 16 15 15 15 17 17 17 17 17 17 17 17 17 17 17 18 18 17 17 17 17 17 17 17 17 17 16 16 16 16 16 16 16 16 16 16 16 16 16 16 16 16 16 16 16 16 17 17
8 8 8 7 7 6 7 7 7 7 8 9 9 8 7 7 8 9 10 9 7 6 6 6 7 8 9 9 9 9 10 10 11 12 13 15 16 17 16 15 15 15 16 16 16 16 16 16 16 16 16 16 16 17 17 17 16 16 16 16 16 16 16 16 16 16 16 16 16 16 16 16 16 16 16 16 16 16 16 16 16 16 16 16 16 16
7 7 6 6 6 6 7 7 7 7 7 7 7 7 7 6 6 7 9 9 8 7 7 7 7 7 9 9 9 9 9 9 8 8 8 10 11 11 11 11 11 12 12 13 13 13 14 14 14 14 14 15 15 16 16 16 16 16 16 16 16 16 16 16 15 15 15 16 16 16 16 16 16 16 16 16 16 16 16 16 16 16 16 16 16 16
6 6 6 6 6 6 6 6 6 5 5 5 6 6 6 6 6 6 7 8 8 8 8 8 7 7 7 7 8 8 8 8 8 7 7 7 7 7 7 7 7 8 8 9 9 9 11 11 12 12 13 14 15 15 16 16 16 16 16 16 16 16 15 15 15 15 15 16 16 16 16 16 16 16 16 16 16 16 16 16 16 16 16 16 16 16
6 6 5 6 6 6 6 6 7 6 6 6 6 6 7 6 6 6 6 7 7 7 7 8 8 7 5 7 8 8 8 8 7 6 6 6 6 6 6 6 6 7 7 7 7 7 9 9 9 9 11 12 13 14 14 15 16 16 16 16 16 15 15 15 15 15 15 15 16 16 16 17 17 17 17 17 16 16 16 16 16 16 16 16 16 16
6 6 7 7 7 7 7 7 7 7 7 6 6 6 6 6 5 5 5 7 7 7 7 8 9 8 6 7 7 8 8 6 5 5 5 5 6 6 5 4 4 5 7 7 7 8 9 8 7 7 8 10 11 12 13 14 15 16 16 16 16 16 15 15 15 15 15 16 16 16 17 17 17 17 17 17 17 16 16 16 16 16 16 16 16 16
6 7 7 8 7 7 6 7 7 7 8 7 6 6 6 7 7 6 7 8 8 7 7 8 9 8 7 7 7 7 6 5 4 4 5 5 5 5 5 4 5 5 6 7 7 8 8 8 8 8 8 10 12 14 15 15 16 17 17 17 17 16 16 16 16 16 15 16 16 16 17 17 17 17 17 17 17 16 16 16 16 16 16 16 16 16
6 6 7 8 8 7 7 7 7 7 7 6 5 6 6 7 7 7 7 7 6 6 6 6 7 7 6 6 5 4 5 5 4 4 4 4 5 6 5 5 5 6 7 7 8 8 8 8 8 8 8 11 13 15 16 16 16 17 17 17 17 17 17 17 16 16 16 16 16 17 17 18 18 18 17 17 17 16 16 16 16 16 16 16 16 16
6 6 7 8 8 8 8 7 7 7 6 6 6 6 6 7 7 7 7 7 6 6 6 6 6 6 6 4 3 3 4 4 3 3 4 6 6 6 5 5 5 6 7 7 7 7 8 8 8 9 10 15 17 17 17 17 17 18 18 18 18 17 17 17 17 17 17 17 17 17 18 18 18 18 17 17 17 16 16 16 16 16 16 16 16 16
6 6 6 7 7 7 6 6 6 7 6 6 6 6 7 7 7 7 8 8 8 8 8 7 6 5 4 3 3 2 2 2 3 4 5 6 6 5 4 5 6 7 7 7 7 8 8 8 9 12 15 18 19 19 19 18 18 18 18 18 18 17 17 16 16 17 17 17 17 18 18 18 18 18 17 17 17 16 16 16 16 16 16 16 16 16
7 6 6 6 6 6 6 6 6 7 7 7 7 7 8 8 8 8 8 8 7 7 6 5 5 4 3 4 4 3 3 4 4 5 5 7 6 6 5 5 6 7 7 7 7 7 7 7 8 11 14 16 18 20 20 20 20 19 18 18 17 17 16 16 16 16 17 17 18 18 18 18 18 18 17 17 16 16 16 15 15 16 16 16 16 16
8 7 6 5 6 6 7 7 8 9 9 9 8 8 8 9 9 8 7 5 5 4 4 4 4 4 4 5 6 6 6 6 5 5 5 5 6 5 4 4 5 6 7 7 7 7 7 7 7 8 11 15 18 20 21 22 22 21 20 19 18 17 16 16 16 17 17 18 18 18 18 18 18 18 18 17 16 16 15 15 15 15 16 16 16 16
9 9 8 8 8 8 9 10 10 11 11 10 9 8 8 7 7 6 4 3 4 5 6 5 6 6 7 8 8 8 8 6 6 6 5 6 6 6 4 4 5 6 7 6 6 7 7 7 8 8 12 16 19 21 22 22 22 22 21 20 19 18 18 18 18 18 18 18 19 19 19 19 18 18 18 17 16 16 15 15 15 15 16 16 16 16
9 9 9 10 10 9 10 10 10 10 10 10 9 8 6 5 4 3 3 3 4 5 7 7 7 7 8 8 8 8 7 6 5 5 5 6 6 6 4 4 5 6 7 6 7 7 8 8 8 9 12 17 19 21 22 22 23 23 23 23 22 21 21 20 20 19 19 19 19 19 19 19 18 18 18 17 17 16 16 15 15 15 16 16 16 16
10 10 10 9 9 8 8 9 9 9 8 8 8 6 4 4 4 4 4 4 5 6 6 6 7 8 8 8 8 7 6 5 5 4 4 5 5 5 5 5 6 7 8 7 7 7 8 8 8 8 10 15 18 20 22 23 23 23 24 24 24 23 23 23 22 22 21 20 20 20 19 18 18 18 18 18 17 16 16 15 15 15 15 15 15 15
9 9 9 9 10 11 11 11 11 11 10 8 7 5 4 5 6 6 6 6 6 6 6 6 7 8 7 8 7 6 5 5 5 4 4 4 4 5 5 5 6 8 8 7 7 7 8 8 8 8 8 12 16 19 21 22 23 23 23 23 23 23 23 23 23 22 21 21 20 19 18 18 17 17 17 17 17 17 16 15 15 15 15 15 15 15
13 14 15 16 19 21 23 22 21 19 18 15 11 8 5 5 5 6 6 6 6 6 7 8 8 8 7 6 6 6 5 5 5 4 4 4 4 5 5 5 6 7 7 7 6 7 7 8 8 8 8 10 13 17 19 21 21 21 20 20 20 20 20 21 21 20 19 19 18 17 16 16 16 16 17 17 17 16 15 15 14 14 14 14 14 14
21 23 24 25 26 27 27 26 24 23 22 19 15 12 8 6 6 6 7 6 6 6 7 8 9 9 8 7 6 6 5 5 4 4 4 4 4 5 5 5 5 6 7 6 6 6 8 8 8 8 8 8 10 13 17 18 18 18 16 16 16 17 17 18 18 18 18 17 16 15 14 14 15 15 16 16 16 15 14 14 14 14 13 12 11 10
22 23 23 23 23 23 23 21 19 17 16 16 17 15 11 6 6 6 7 6 6 6 7 8 8 8 7 7 7 6 6 5 4 4 4 4 4 4 4 4 5 5 6 5 6 6 8 8 8 8 8 8 8 9 13 15 15 14 14 14 14 14 15 16 16 17 17 16 15 14 14 14 14 14 14 14 14 14 13 13 13 13 12 9 7 5
18 18 17 17 17 16 15 13 12 12 13 14 15 13 9 5 4 6 6 6 6 6 7 7 8 7 7 7 6 6 6 5 4 4 4 3 4 4 4 4 4 4 4 5 5 5 6 6 6 7 7 8 8 8 8 10 11 12 13 14 15 15 16 16 16 16 16 16 16 15 15 15 14 14 14 14 13 13 13 13 13 11 8 6 5 4
10 10 9 10 10 9 9 8 9 10 12 13 13 12 8 4 4 4 5 5 5 6 7 7 7 7 6 6 6 5 5 4 4 3 4 3 3 4 4 4 4 4 4 4 4 4 4 4 4 5 6 7 8 7 7 8 8 9 10 12 13 14 16 16 17 17 16 16 16 16 16 16 16 15 15 14 14 14 13 14 12 9 5 4 4 4
6 6 5 6 6 6 6 6 7 8 10 11 10 9 6 4 3 4 4 5 5 5 6 6 6 6 6 5 5 4 4 3 4 4 4 3 3 3 4 4 4 4 4 3 3 4 4 4 4 5 6 7 8 8 8 8 7 7 7 8 8 10 14 16 16 16 16 16 16 16 16 16 16 16 16 15 15 14 14 14 12 9 5 4 4 4
6 5 6 6 6 6 6 6 6 6 6 6 6 5 5 4 4 4 4 4 4 4 5 6 6 6 6 6 5 5 4 4 5 6 5 4 3 3 3 4 4 4 3 3 3 4 4 4 4 5 6 6 7 7 7 8 7 7 7 6 6 7 12 13 14 14 14 14 15 15 16 16 16 16 16 16 16 15 15 14 12 9 5 4 4 4
7 7 6 7 7 6 6 5 5 5 5 4 4 3 3 3 4 4 4 3 3 4 5 6 6 6 6 6 6 5 5 5 6 7 6 4 3 3 3 3 4 4 4 4 4 4 4 4 5 5 5 5 6 6 7 7 7 7 7 7 6 6 8 9 10 10 10 11 11 12 14 14 15 15 15 15 15 15 15 14 13 11 7 5 4 4
8 8 7 7 7 7 6 6 6 5 4 4 3 3 3 3 3 3 3 3 3 4 4 5 5 6 6 6 6 6 5 5 6 7 7 4 3 3 3 4 4 4 4 4 4 4 4 5 5 5 5 5 5 5 6 6 7 7 6 6 6 6 6 7 7 7 8 7 7 7 9 10 11 12 12 13 13 13 13 13 12 12 10 7 5 4
8 8 8 8 7 7 7 6 6 5 4 3 3 3 3 3 3 3 3 3 3 3 3 4 4 5 6 6 6 6 6 5 6 7 7 5 4 3 4 4 4 4 4 4 4 4 4 6 6 6 6 5 5 4 5 5 6 6 5 6 6 6 6 6 6 7 7 6 6 6 6 6 6 7 8 9 10 10 11 11 11 11 11 10 8 6
8 8 8 8 8 7 7 6 6 5 4 4 3 3 3 3 3 3 3 3 4 4 4 4 4 4 5 5 6 6 7 6 7 7 7 6 5 4 4 4 4 4 4 5 5 5 5 6 7 7 7 6 5 4 4 4 4 5 5 5 6 6 6 6 6 6 6 6 6 6 5 5 6 6 6 8 9 9 9 9 9 9 10 10 10 8
8 8 7 7 7 7 7 6 5 4 4 3 3 3 3 4 4 4 4 4 4 4 5 5 5 6 6 6 6 6 7 6 7 7 7 6 5 5 4 4 4 5 5 5 5 6 6 6 7 7 7 6 5 5 4 4 4 5 5 5 5 5 6 6 6 6 6 6 6 6 5 5 6 6 7 8 9 9 8 8 8 8 9 9 10 10
7 7 7 7 7 6 5 5 4 4 3 3 3 4 4 4 4 4 4 4 4 4 5 5 5 6 8 9 8 8 8 8 8 8 9 7 6 6 5 5 5 6 5 5 5 6 6 6 7 7 6 6 6 6 6 5 5 5 5 5 5 5 5 5 5 6 6 6 6 6 5 5 5 5 5 5 5 5 5 5 6 7 8 8 9 10
7 7 7 7 6 6 5 4 4 3 3 3 4 4 5 5 5 5 4 4 4 5 5 5 5 6 7 8 9 10 10 9 9 9 9 8 7 6 6 6 6 6 6 5 5 6 6 6 6 6 6 6 6 7 6 6 6 6 5 5 5 5 5 4 5 5 5 5 6 6 5 4 3 3 3 3 3 3 3 3 4 5 5 4 5 7
7 7 7 7 6 5 4 4 3 3 3 4 4 5 5 5 5 4 4 4 5 5 5 6 6 6 6 7 8 9 9 8 8 8 7 6 6 6 6 6 6 6 5 5 5 6 6 6 7 7 7 7 6 6 6 5 6 6 6 5 4 4 4 4 4 4 5 5 5 5 5 4 4 4 4 3 3 3 3 3 3 4 4 3 3 3
7 6 6 6 5 4 3 3 3 3 4 4 4 4 4 4 4 4 4 4 4 4 5 5 5 5 6 6 6 7 7 7 7 7 6 6 6 6 6 5 5 5 5 5 5 6 6 7 7 8 7 7 7 7 7 7 7 8 8 6 5 5 5 5 5 5 5 5 5 5 5 5 5 5 5 4 4 3 3 3 3 3 3 2 2 2
7 6 5 5 4 3 3 3 4 4 4 4 4 4 4 4 4 4 4 4 4 4 4 4 4 4 4 4 5 5 5 5 5 5 6 6 6 5 5 5 5 5 5 5 6 6 7 7 7 7 7 7 7 6 7 7 7 7 6 6 5 6 6 5 4 4 4 4 5 5 5 5 5 5 4 4 4 4 4 3 3 4 4 3 3 2
6 5 5 4 4 4 4 4 4 4 4 4 4 4 4 4 4 4 4 4 5 5 5 5 4 4 4 4 3 3 3 4 5 5 6 6 5 5 5 5 5 5 5 5 6 6 7 7 7 7 7 6 6 6 7 7 7 7 6 6 5 5 3 3 3 3 4 4 4 4 4 4 4 4 4 4 4 4 4 4 4 5 5 4 3 3
5 5 5 4 4 4 4 4 4 4 4 4 4 4 4 4 4 4 4 4 5 6 5 4 4 4 4 4 4 4 4 4 4 5 6 6 6 5 5 5 5 5 5 5 5 5 6 7 7 7 7 6 6 6 6 6 6 6 5 5 5 4 4 3 4 4 4 4 3 3 3 3 3 4 4 4 4 3 3 2 3 3 4 4 3 3
5 5 5 4 4 4 4 4 4 4 4 4 4 4 4 4 4 4 4 5 5 6 5 4 4 3 3 4 4 5 4 4 4 5 5 6 7 8 6 5 4 4 4 5 5 5 6 7 7 8 7 7 6 6 6 6 6 6 6 6 6 5 5 4 4 4 3 3 2 2 2 2 3 3 4 3 3 3 2 2 3 3 3 3 3 3
4 4 4 4 4 4 4 4 4 4 4 4 5 4 4 4 3 4 5 5 6 6 5 4 3 3 3 4 5 5 5 5 5 5 4 5 5 5 5 5 5 4 4 5 5 6 6 7 8 8 8 7 7 7 6 6 5 5 6 6 5 5 5 4 4 3 3 2 2 2 3 3 3 3 3 3 3 3 2 2 3 3 3 2 2 2
4 4 4 4 4 3 3 3 4 4 4 4 4 4 4 3 3 4 5 6 6 5 4 3 3 3 4 4 5 5 5 6 6 5 5 5 5 5 5 5 5 6 6 6 7 7 7 8 8 8 8 7 7 6 6 5 5 5 5 5 5 4 4 3 2 2 2 2 2 3 3 3 2 2 3 3 3 2 2 2 2 2 2 2 2 2
4 4 4 4 4 3 3 3 3 4 4 4 4 4 4 4 4 5 5 6 5 5 4 3 3 3 4 5 5 5 6 6 6 6 6 5 5 5 5 5 5 6 7 7 7 8 8 8 8 9 8 7 6 5 5 5 5 5 6 5 5 4 3 2 2 2 2 2 3 3 3 3 3 3 3 3 3 2 1 1 1 1 1 1 2 2
4 4 4 4 4 4 3 3 4 4 5 5 4 4 3 4 5 6 6 6 5 4 3 3 3 4 4 5 5 6 6 6 6 6 6 5 5 5 5 5 5 6 6 6 6 6 6 7 8 8 7 5 4 4 4 4 5 5 5 5 4 3 2 2 2 2 2 2 2 2 2 2 2 3 3 4 3 3 2 1 1 1 1 2 2 2
4 4 4 4 4 4 4 4 4 4 5 5 5 4 3 3 4 5 6 6 5 3 2 3 3 4 5 5 5 5 6 5 5 5 5 5 5 5 5 5 6 6 5 5 5 5 5 5 5 5 3 1 1 1 3 4 5 5 5 4 3 3 2 2 2 2 2 2 2 2 2 2 2 2 3 3 3 3 2 2 2 2 2 2 3 3
4 4 5 4 4 4 4 4 4 4 4 5 5 5 4 4 4 4 5 5 4 3 2 3 3 4 5 5 5 5 5 5 5 5 5 5 5 5 5 5 6 6 6 5 5 5 4 4 4 3 2 2 2 2 2 3 4 5 5 5 4 3 2 2 2 2 2 2 2 2 2 3 3 2 2 3 3 3 3 2 2 3 3 3 3 3
Wind_Direction
293 297 299 300 299 296 293 295 295 296 296 297 298 298 297 296 295 293 294 294 294 293 292 290 290 289 289 289 289 289 290 291 292 292 293 293 294 294 294 293 293 293 292 291 291 290 290 289 288 287 286 285 284 283 283 282 282 281 281 282 282 282 282 282 282 281 281 280 278 277 276 274 274 273 272 272 271 271 271 270 269 269 269 269 268 267
295 297 298 298 297 295 293 296 298 299 300 300 299 298 298 297 295 294 294 293 292 292 292 292 291 291 290 290 290 290 291 292 292 293 293 293 293 293 293 293 293 292 292 291 291 291 290 289 289 288 287 286 285 284 283 283 282 282 282 281 281 281 281 281 281 281 280 279 278 277 275 274 273 272 272 271 270 270 269 268 267 267 267 267 266 265
300 298 297 298 297 296 296 300 301 300 300 299 297 296 296 295 294 293 293 293 293 293 293 293 293 293 292 292 292 292 292 292 292 292 292 292 292 292 292 292 292 292 291 291 290 290 290 289 289 288 287 286 285 284 284 283 282 282 281 280 280 279 279 278 278 278 278 278 277 277 276 276 275 274 274 274 273 273 272 271 271 270 269 269 268 267
299 298 300 300 299 298 297 300 301 300 297 295 294 293 292 292 291 291 292 293 294 294 293 293 294 294 293 293 292 292 292 291 291 291 291 291 291 291 291 291 291 291 291 290 290 290 289 289 289 288 288 287 286 285 285 284 283 282 281 280 279 278 277 276 276 275 275 276 276 276 277 277 277 278 278 278 278 278 279 278 278 278 277 276 276 274
298 299 301 301 299 297 297 298 298 297 293 291 289 289 289 288 288 289 291 292 292 293 293 293 294 294 294 293 292 291 291 291 290 290 290 290 290 290 290 291 291 291 290 290 290 290 290 290 290 290 290 289 289 288 287 286 285 284 283 281 280 279 278 277 277 277 276 277 277 277 277 277 278 278 279 279 280 280 281 281 281 281 281 280 280 280
297 297 298 297 296 296 297 296 294 292 290 287 286 286 287 287 287 288 289 290 291 292 292 293 293 293 293 292 292 291 291 290 289 289 288 289 289 290 291 292 292 292 291 291 292 292 292 292 292 292 292 292 292 291 291 290 288 287 286 285 284 283 282 281 280 280 279 279 279 278 278 277 277 277 277 277 278 278 278 278 278 279 278 279 279 280
293 292 293 292 292 291 292 291 290 289 288 289 289 290 289 288 288 287 287 287 288 289 289 289 289 289 289 290 290 290 290 289 288 287 287 288 290 292 293 294 294 293 293 293 293 293 293 293 293 293 293 293 293 293 293 292 291 291 290 288 287 286 285 284 283 282 281 280 279 278 277 277 276 275 274 274 274 274 274 274 274 275 274 275 276 277
291 291 291 291 291 290 288 287 288 289 291 294 296 296 294 291 288 285 284 283 282 283 284 284 284 284 284 286 288 289 289 288 287 286 287 289 292 294 295 295 294 293 293 292 292 291 291 290 290 290 290 291 291 292 292 292 292 292 291 290 290 288 288 286 285 284 283 282 281 280 279 279 278 277 276 276 275 275 275 275 276 276 276 276 277 277
291 293 292 290 291 293 292 289 288 290 294 296 296 296 295 292 288 285 282 281 280 279 280 281 282 282 281 284 286 286 285 283 282 283 287 291 294 295 294 293 292 291 290 289 289 288 288 287 287 287 288 289 290 290 291 292 292 292 292 292 291 290 290 289 288 287 287 285 285 284 283 282 282 282 280 280 280 280 280 280 280 280 281 281 281 281
287 288 289 288 288 289 291 291 291 292 293 292 290 289 288 287 287 285 283 282 281 280 278 279 282 286 288 289 288 286 284 281 281 284 289 292 294 293 292 290 289 288 287 287 286 286 285 285 285 286 287 288 289 290 291 291 292 292 292 291 291 290 290 290 289 288 287 286 285 284 283 283 283 282 282 282 281 281 281 281 281 281 281 281 281 282
283 283 285 287 287 286 285 288 290 291 289 286 282 279 274 274 277 282 286 286 286 284 280 282 288 295 300 298 293 289 285 283 284 287 291 293 293 292 291 289 287 286 286 286 286 286 285 285 286 287 289 290 291 291 291 291 291 291 291 290 289 289 288 288 288 287 287 286 284 283 282 281 280 280 279 279 279 279 279 279 279 278 278 278 278 279
285 286 287 288 289 288 286 286 285 284 281 278 276 274 269 269 274 283 290 293 294 294 293 295 299 302 302 300 296 291 284 283 286 290 293 293 294 294 295 295 295 294 293 291 290 289 288 289 291 292 293 293 293 292 291 290 290 289 288 287 287 286 286 287 287 287 287 286 285 283 281 279 278 278 277 277 277 277 277 277 277 276 276 276 276 276
284 285 286 286 287 287 287 286 284 280 274 275 279 284 289 293 298 300 299 298 298 299 301 302 302 299 295 291 288 284 280 281 285 291 294 298 303 309 315 319 320 317 310 302 299 298 297 298 297 296 295 293 291 290 289 287 286 285 284 284 284 284 284 285 286 287 288 287 286 284 282 280 278 277 276 276 276 276 276 276 276 275 275 275 276 276
283 283 282 282 282 283 282 283 284 284 285 287 290 295 299 304 307 306 300 296 296 298 301 300 298 294 288 279 274 272 274 280 286 293 300 310 322 331 337 338 333 324 314 310 309 309 310 307 303 297 293 289 288 287 285 284 283 282 282 282 282 282 283 284 285 286 287 288 287 285 283 281 279 277 275 274 274 274 274 274 274 274 275 275 275 275
283 283 281 280 281 282 284 287 289 290 291 292 293 294 295 295 294 292 289 291 294 297 298 295 293 289 284 278 273 272 275 284 295 307 318 325 330 334 335 329 317 309 308 309 308 308 307 304 298 292 288 285 282 281 280 281 281 281 280 280 281 281 281 282 283 284 286 286 286 285 283 280 278 276 274 272 271 271 271 272 272 273 273 274 274 274
278 278 278 280 281 282 284 285 285 285 286 288 289 289 289 288 286 286 285 288 291 294 293 292 291 289 284 279 277 281 294 308 322 331 333 325 317 311 308 305 302 301 300 299 298 297 297 294 292 290 287 283 281 279 279 277 278 278 279 279 279 279 279 280 281 283 284 285 285 284 282 280 277 275 273 271 270 269 269 270 270 271 272 273 274 274
270 271 273 277 278 279 280 279 277 278 281 283 283 282 280 283 286 288 288 287 287 286 283 285 288 289 289 287 293 313 339 337 334 329 322 305 295 290 291 292 291 289 288 288 288 289 291 291 291 290 289 286 284 282 281 278 277 277 277 277 277 277 278 279 281 282 284 285 285 284 282 280 277 275 273 271 270 268 268 268 270 271 272 273 274 275
266 267 272 275 278 280 283 283 282 280 279 280 280 279 278 280 282 283 281 280 280 280 281 281 281 282 286 293 316 354 1 344 326 308 296 289 286 284 284 281 279 280 283 286 288 291 292 293 293 292 292 291 290 288 286 284 282 281 279 277 276 275 275 278 280 283 285 286 286 285 283 280 278 276 273 271 270 268 268 268 270 271 272 274 275 276
268 269 272 276 278 280 280 279 279 280 282 283 285 285 285 283 282 281 280 280 280 280 281 280 279 281 287 297 309 317 303 283 278 278 280 282 283 284 286 283 284 286 289 292 294 296 296 295 294 293 293 294 294 294 294 294 292 290 286 283 279 276 275 277 280 283 285 287 287 286 284 282 279 277 274 272 270 269 268 269 270 271 272 274 275 276
269 268 268 276 280 281 276 273 275 280 285 289 291 291 288 286 284 282 280 280 279 279 279 282 287 294 301 300 295 284 268 266 270 276 282 286 288 290 291 291 292 293 293 294 296 297 296 294 293 293 295 296 299 300 302 302 301 299 296 292 288 284 281 280 281 283 286 287 288 287 286 283 280 278 275 272 270 268 268 269 270 271 272 273 274 275
272 271 270 275 280 282 282 282 283 285 287 289 289 286 282 280 279 278 278 281 287 293 301 304 305 305 303 299 296 294 295 295 295 294 293 291 290 291 293 292 292 292 291 292 293 294 294 294 294 295 297 300 302 303 304 304 304 303 303 302 299 296 291 289 287 287 287 288 288 287 286 284 281 278 275 272 269 268 268 269 270 271 272 273 274 275
272 272 272 271 271 273 278 282 283 284 284 283 280 276 273 273 275 279 288 302 312 314 311 304 298 296 296 295 297 299 303 301 298 294 292 288 288 289 293 291 290 289 289 291 293 295 296 296 297 298 300 302 303 303 304 304 304 305 306 307 306 303 299 295 292 290 288 288 287 286 286 284 281 278 275 272 269 267 267 268 269 270 272 273 274 275
263 265 267 266 266 269 273 277 279 279 279 276 272 268 269 274 283 296 311 312 306 300 294 289 287 287 289 290 292 294 295 292 288 286 286 285 288 291 295 294 291 290 290 294 299 301 301 300 300 301 302 304 304 304 305 306 306 307 307 307 306 304 301 297 293 290 287 285 285 284 284 283 281 278 275 272 269 267 266 267 268 270 271 272 273 275
258 261 264 265 267 269 272 274 275 275 274 271 269 269 275 274 272 275 280 285 285 284 283 284 285 287 289 290 290 290 290 288 286 284 283 284 288 293 299 301 299 297 296 301 304 306 304 302 302 303 304 305 306 306 305 306 305 305 304 304 303 301 299 296 291 287 284 282 281 281 282 282 280 278 275 273 270 268 267 268 268 270 271 272 273 274
260 263 267 270 271 271 270 270 270 271 273 272 273 273 267 261 265 271 279 283 284 285 287 290 292 292 294 295 294 292 291 288 286 285 285 285 289 294 301 304 303 300 300 303 306 307 304 302 303 304 304 304 304 303 302 301 300 300 300 301 302 302 301 299 295 290 285 282 280 280 281 281 280 278 276 273 271 269 268 269 270 270 271 272 273 274
272 274 278 280 280 279 278 277 277 278 281 282 284 283 276 277 284 292 297 296 296 295 295 294 294 294 297 298 296 292 291 289 288 289 291 292 293 295 299 302 301 299 300 303 307 307 304 302 302 302 302 300 299 299 297 296 297 299 302 306 309 312 313 310 307 303 296 290 286 284 284 284 282 279 276 274 273 272 272 272 272 272 272 273 274 275
282 284 287 289 289 289 288 288 288 289 290 293 297 303 307 311 310 306 300 301 302 301 299 297 297 297 298 294 291 290 293 294 295 297 300 298 296 295 297 301 301 301 302 304 306 305 303 301 301 300 299 296 295 294 293 295 298 303 310 314 317 320 320 318 318 316 308 303 299 296 293 290 286 282 279 278 277 276 276 276 275 275 274 274 274 274
292 294 297 299 300 301 301 302 301 300 299 300 304 308 312 315 309 302 298 302 304 303 299 298 298 298 297 293 292 293 296 296 297 300 305 299 293 290 297 304 306 306 305 304 302 301 300 299 298 297 295 293 292 292 294 299 304 309 314 314 313 312 312 312 311 310 309 308 307 305 303 298 294 289 287 285 284 283 282 280 279 277 276 275 273 270
299 303 307 309 309 309 310 309 305 301 298 298 301 305 309 306 299 295 296 302 303 300 295 295 295 295 294 294 294 294 292 291 294 303 316 305 294 291 301 307 309 309 309 306 303 301 297 295 294 293 293 295 297 300 303 308 310 310 310 310 309 308 308 307 306 306 306 307 307 307 306 303 299 296 294 292 290 288 285 283 281 279 276 274 270 266
305 309 311 308 304 301 299 295 292 291 292 295 298 301 304 299 291 290 294 299 299 296 294 294 294 293 295 295 294 291 286 287 301 320 335 317 302 298 306 306 308 310 313 310 306 300 295 293 294 297 302 307 311 313 313 313 312 310 310 310 311 311 310 309 309 308 308 308 308 307 305 303 300 298 296 294 292 289 286 283 281 279 274 270 267 265
303 300 292 286 283 282 284 285 286 288 292 294 296 297 297 290 286 288 294 297 295 293 292 292 292 293 294 295 293 291 289 298 318 332 337 317 302 299 306 304 305 308 314 312 308 304 302 302 304 308 313 313 313 312 310 308 307 307 307 308 309 311 311 312 312 312 312 311 310 308 306 303 301 299 297 294 291 288 284 282 279 277 272 268 267 266
293 288 283 282 283 285 287 288 288 288 289 291 292 290 288 285 285 286 289 290 290 288 287 288 289 289 290 288 288 288 292 302 314 320 320 308 298 297 301 301 303 307 312 310 306 304 304 304 306 307 307 305 303 302 302 302 302 302 303 304 304 307 310 312 313 314 314 313 312 310 307 305 303 301 299 296 292 288 284 281 278 274 266 264 263 265
289 287 288 291 292 292 290 288 285 285 285 287 289 290 291 289 287 285 283 281 280 280 282 285 288 289 289 286 284 284 286 292 302 308 310 305 299 296 300 302 305 307 311 305 298 292 288 291 295 297 296 294 294 295 297 299 300 301 303 303 303 304 308 309 310 311 311 312 311 310 308 306 304 302 300 297 294 291 288 285 281 277 268 263 262 265
292 293 294 296 295 294 291 289 287 287 289 295 300 303 303 294 286 282 278 275 274 276 281 286 289 291 292 290 286 283 283 287 296 304 311 310 304 300 303 304 305 306 306 300 293 286 280 282 286 290 291 291 292 293 295 298 300 301 303 304 304 305 306 307 306 306 306 307 306 305 304 302 300 299 298 297 296 296 295 294 291 289 287 285 281 277
298 298 299 299 298 297 295 295 296 299 306 311 313 312 306 298 289 283 280 281 282 283 284 285 286 288 290 289 287 286 284 289 298 306 312 312 309 304 302 300 300 299 298 293 290 286 281 282 285 288 292 293 293 293 293 295 297 299 301 303 303 303 303 303 303 302 302 300 298 296 296 296 295 294 294 294 296 299 301 302 302 300 299 297 294 290
298 299 300 300 300 300 299 302 305 311 316 317 315 310 306 302 299 296 295 296 296 294 290 284 280 277 277 278 280 282 284 289 296 301 304 304 302 299 294 292 291 291 289 287 285 284 284 286 288 291 293 294 295 295 295 295 296 298 299 300 300 300 300 299 298 298 297 296 296 297 300 301 300 298 295 294 295 297 299 301 301 300 297 295 292 288
297 298 300 300 300 299 300 304 309 314 316 313 311 309 308 305 304 302 301 299 296 291 287 281 276 270 265 265 268 272 278 283 287 289 290 289 287 285 282 283 283 282 279 280 283 285 287 290 292 293 293 293 294 297 299 300 299 298 296 296 297 297 297 296 295 295 294 294 295 297 297 296 297 298 300 298 299 299 299 296 293 290 287 285 283 280
297 298 298 296 295 294 296 301 307 311 313 313 311 309 308 305 302 299 296 291 285 279 277 275 272 268 264 263 262 263 267 271 273 275 276 275 274 273 273 274 274 272 269 273 279 284 288 291 293 294 294 292 292 294 297 299 299 297 294 294 293 293 292 292 293 293 294 295 293 289 284 284 287 293 301 304 309 311 305 298 289 283 279 277 275 273
292 291 291 289 290 292 296 302 307 311 313 311 309 308 305 301 297 292 286 281 275 270 266 265 265 264 262 261 261 262 264 265 266 267 267 265 264 264 264 266 266 266 265 267 272 277 282 285 287 290 291 292 293 293 295 295 294 295 295 294 291 287 286 289 293 296 299 298 295 292 288 290 295 301 303 305 307 305 300 293 284 277 272 270 270 269
287 287 289 293 297 302 308 310 312 313 313 309 306 304 301 297 293 287 277 272 269 265 262 259 260 261 261 261 261 262 262 263 263 262 262 258 256 256 259 262 265 267 268 268 269 271 274 276 278 280 282 285 289 292 294 293 294 295 298 297 294 292 293 295 297 298 298 296 297 299 303 308 311 311 310 308 305 298 289 283 279 276 272 270 271 273
292 294 297 303 310 315 314 314 314 313 312 307 304 299 295 291 289 286 282 278 275 273 270 266 264 264 263 262 261 260 258 257 257 258 258 255 253 253 257 263 269 274 277 277 276 274 273 274 275 276 278 281 284 288 290 291 294 296 297 296 295 296 299 298 297 295 294 295 298 302 306 309 310 309 307 306 302 295 286 279 277 279 282 283 282 281
296 299 303 309 312 313 310 311 311 309 306 301 296 290 286 285 286 287 290 289 286 282 278 275 272 270 270 268 266 264 264 267 270 271 272 266 260 256 257 262 269 275 281 282 280 277 274 275 276 279 282 284 286 288 289 291 293 295 295 293 294 295 297 296 296 296 298 298 300 302 305 304 303 302 300 299 296 292 290 286 284 284 286 287 285 280
296 298 300 302 302 302 304 306 306 306 303 297 291 287 285 284 286 288 290 289 286 284 281 278 276 277 281 287 293 298 300 299 297 295 290 281 274 270 269 270 273 276 279 279 279 278 278 279 280 282 285 286 285 285 286 290 292 294 292 292 294 297 298 298 299 298 297 295 295 296 298 299 300 300 300 299 297 296 296 295 292 287 283 280 277 274
293 293 294 294 294 295 298 299 299 298 296 292 289 288 286 285 284 285 284 284 284 283 281 280 282 287 295 305 311 313 311 307 301 296 290 288 285 282 279 278 277 277 277 279 282 286 289 289 288 287 287 286 284 283 284 287 290 292 291 289 287 285 283 288 292 293 291 290 290 293 301 308 309 308 305 299 294 290 287 286 282 276 270 266 264 264
286 287 287 287 287 286 285 287 290 292 292 290 289 288 287 284 283 282 281 282 282 281 280 283 290 300 309 313 315 314 312 311 309 305 298 301 304 305 302 295 289 284 281 283 288 292 294 292 291 290 289 287 284 282 282 286 288 290 290 287 283 278 272 276 281 285 288 290 297 307 321 322 317 310 303 294 285 277 267 264 262 261 257 253 252 256
282 283 284 284 280 277 276 282 286 289 290 289 288 287 285 284 282 280 279 278 278 278 280 288 300 312 316 316 316 315 313 312 312 313 312 315 319 322 321 317 313 309 304 298 293 289 285 284 285 287 288 287 284 282 281 285 288 290 290 288 286 282 277 278 282 289 299 310 320 329 333 326 316 306 297 290 283 273 254 249 252 258 263 270 281 289
285 286 287 284 279 274 274 281 286 288 288 287 285 285 285 285 283 281 279 278 278 281 287 297 307 315 316 315 315 315 313 312 312 313 315 316 318 319 321 321 320 317 312 304 296 289 282 278 277 278 281 282 283 285 287 290 293 295 294 293 291 289 287 292 303 320 335 338 338 335 332 324 314 303 296 293 287 277 257 245 249 262 287 317 327 327
288 291 291 289 284 282 282 286 287 287 285 284 283 284 285 287 287 287 285 284 284 287 296 305 315 317 316 314 313 314 312 311 312 313 315 317 319 321 324 324 321 317 312 304 298 292 285 278 272 269 267 269 274 283 293 301 305 304 302 300 300 299 302 315 335 351 354 348 339 334 328 322 316 312 310 307 304 301 294 275 269 289 333 345 340 330
289 290 291 289 287 286 286 287 286 285 283 285 286 286 287 289 291 292 290 288 288 290 300 314 322 321 317 313 312 312 313 312 312 313 315 318 321 324 326 324 321 317 313 307 302 297 291 282 272 263 254 254 263 279 298 309 314 315 312 310 310 313 324 341 352 354 347 337 332 326 318 311 308 307 308 309 312 316 327 335 356 11 11 360 345 328
286 286 285 284 283 281 282 283 284 285 286 289 291 292 291 291 290 289 287 285 286 293 311 326 326 321 314 311 310 312 314 314 314 314 314 318 321 324 324 323 322 321 320 317 315 313 308 301 290 278 261 238 256 302 317 322 325 326 326 326 328 334 345 348 347 343 334 326 321 316 308 300 294 292 295 304 312 321 334 353 10 18 14 2 346 330
284 283 282 280 277 275 275 278 282 286 290 294 297 297 295 292 288 285 283 283 288 301 322 327 323 315 308 308 309 313 317 317 315 314 313 317 320 323 322 323 325 327 327 328 328 327 327 327 326 329 358 44 53 42 360 340 335 335 336 338 338 339 340 336 331 324 318 313 308 305 304 303 303 305 312 321 329 336 346 355 1 4 4 357 346 334